Location: Easthampton
(42.2676°N, 72.6690°W)
Time: 16:11:35
(UTC+00:00)

BlueWalker 3 - Visible Passes

Search period start: 04 December 2022 00:00
Search period end: 14 December 2022 00:00
Orbit: 501 x 519 km, 53.2° (Epoch: 04 December)

Date Brightness Start Highest point End Pass type
(mag) Time Alt. Az. Time Alt. Az. Time Alt. Az.
04 Dec 3.9 23:24:16 10° NW 23:26:02 19° NNW 23:26:02 19° NNW visible
05 Dec 3.5 23:05:52 10° NW 23:08:30 23° N 23:08:30 23° N visible
06 Dec 3.2 22:47:27 10° NW 22:50:44 25° NNE 22:51:01 25° NNE visible
07 Dec 3.2 22:29:02 10° NW 22:32:22 26° NNE 22:33:39 22° NE visible
08 Dec 4.6 00:07:27 10° NW 00:08:29 17° WNW 00:08:29 17° WNW visible
08 Dec 3.1 22:10:37 10° NW 22:13:59 27° NNE 22:16:25 15° ENE visible
08 Dec 3.6 23:49:04 10° WNW 23:51:16 32° WNW 23:51:16 32° WNW visible
09 Dec 3.0 21:52:11 10° NW 21:55:36 28° NNE 21:58:59 10° E visible
09 Dec 2.4 23:30:39 10° WNW 23:34:14 60° WSW 23:34:14 60° WSW visible
10 Dec 2.4 23:12:14 10° WNW 23:16:05 58° SW 23:17:29 35° SSE visible
11 Dec 2.6 22:53:50 10° WNW 22:57:39 54° SW 23:01:05 12° SE visible
12 Dec 2.8 22:35:26 10° WNW 22:39:13 51° SW 22:42:58 10° SSE visible
13 Dec 3.0 22:17:01 10° WNW 22:20:46 47° SW 22:24:30 10° SSE visible
